User: anonymous   Login
Location: Unspecified
(0.0000°N, 0.0000°E)
Time: 05:30:20
(UTC+00:00)
Language:

ARKYD 6A - Orbit

View from above orbital plane
View from above orbital plane
View from above satellite
View from above satellite

Ground track
Ground track

The orbit data is extracted from the following two-line orbital elements,

1 43130U 18004V   18267.48596773 +.00001214 +00000-0 +55101-4 0  9991
2 43130 097.5247 330.3454 0011673 108.3898 251.8609 15.22710406038824
Epoch (UTC): 24 September 2018 11:39:47
Eccentricity: 0.0011673
inclination: 97.5247°
perigee height: 489 km
apogee height: 506 km
right ascension of ascending node: 330.3454°
argument of perigee: 108.3898°
revolutions per day: 15.22710406
mean anomaly at epoch: 251.8609°
orbit number at epoch: 3882

The dashed part of the orbit path shows where the satellite is in the earth's shadow,  

DLR